Weather Roundup
Issued by NWS

Home | Current Version | Previous Version | Text Only | Print | Product List | Glossary On
Versions: 1 2 3 4 5 6 7 8 9 10 11 12 13 14 15 16 17 18 19 20 21 22 23 24 25 26 27 28 29 30 31 32 33 34 35 36 37 38 39 40 41 42 43 44 45 46 47 48 49 50
000
NZUS93 KARX 281659
HRRWXR

CURRENT HOURLY OBSERVATIONS ACROSS
MUCH OF THE UPPER MISSISSIPPI VALLEY
NATIONAL WEATHER SERVICE LA CROSSE WI
1200 PM CDT SAT MAR 28 2015


...SOUTHEAST MINNESOTA...


CITY           SKY/WX    TMP DP  RH WIND       PRES   REMARKS
ROCHESTER      SUNNY     30  16  56 S13       30.26S WCI  20
ROCHESTER/MAYO FAIR      32  14  47 SE10      30.26S WCI  24
WINONA         SUNNY     36  10  35 S8        30.30S WCI  29
AUSTIN         SUNNY     34  19  55 S8        30.24F WCI  27
ALBERT LEA     SUNNY     37  16  41 S13       30.22F WCI  29
DODGE CENTER   SUNNY     30  19  64 S10       30.24S WCI  21
PRESTON        SUNNY     30  16  55 S9        30.27S WCI  22
OWATONNA       SUNNY     36  19  51 S8        30.23F WCI  29
FARIBAULT      SUNNY     36  19  51 SE12      30.24F WCI  27
$$

...ELSEWHERE IN MINNESOTA...


CITY           SKY/WX    TMP DP  RH WIND       PRES   REMARKS
MINNEAPOLIS    SUNNY     35  13  40 S10       30.25F WCI  27
INTNL FALLS    SUNNY     38  11  32 SW13G23   30.07F WCI  30
DULUTH         SUNNY     36   8  31 SW12G23   30.16F WCI  28
RED WING       SUNNY     36  10  35 SE7       30.26F WCI  30
REDWOOD FALLS  CLOUDY    38  25  59 S14       30.18F WCI  30
MANKATO        SUNNY     37  19  48 S10       30.22F WCI  30
WORTHINGTON    MOSUNNY   37  28  70 S14       30.16S WCI  29
FAIRMONT       CLOUDY    37  18  44 S14       30.19F WCI  29
$$

...SOUTHWEST WISCONSIN...


CITY           SKY/WX    TMP DP  RH WIND       PRES   REMARKS
LA CROSSE      SUNNY     38  14  37 S8        30.30F WCI  32
PRAIRIE DU CHI SUNNY     33  10  37 CALM      30.31F
BOSCOBEL       SUNNY     35  12  38 MISG      30.32F
LONE ROCK      NOT AVBL
PLATTEVILLE    SUNNY     33  14  45 SE6       30.31S WCI  27
FORT MC COY    SUNNY     36   6  28 S5        30.30S WCI  32
VIROQUA        FAIR      32  14  46 SW7       30.28S WCI  26
WIS DELLS      NOT AVBL
$$

...ELSEWHERE IN WISCONSIN...


CITY           SKY/WX    TMP DP  RH WIND       PRES   REMARKS
MILWAUKEE      MOSUNNY   31  16  54 VRB3      30.34S
MADISON        MOSUNNY   33  11  39 S7        30.32F WCI  27
GREEN BAY      SUNNY     32  19  58 S7        30.31F WCI  26
EAU CLAIRE     NOT AVBL
BLACK RVR FLS  FAIR      38   5  25 SE3       30.28F
MEDFORD        SUNNY     32  13  46 SW7       30.24S WCI  25
WAUSAU         SUNNY     34  10  37 S6        30.24F WCI  29
WIS RAPIDS     SUNNY     36   4  26 VRB3      30.29F
MARSHFIELD     SUNNY     36   8  31 CALM      30.26S
RICE LAKE      SUNNY     36   9  32 S13       30.25F WCI  27
$$

...NORTHEAST IOWA...


CITY           SKY/WX    TMP DP  RH WIND       PRES   REMARKS
DECORAH        SUNNY     30  16  55 S7        30.27F WCI  23
MASON CITY     SUNNY     40  17  39 SE13      30.24F WCI  32
CHARLES CITY   SUNNY     36  16  44 SE12      30.26F WCI  27
OELWEIN        SUNNY     36  16  44 S12       30.28S WCI  27
$$

...ELSEWHERE IN IOWA...


CITY           SKY/WX    TMP DP  RH WIND       PRES   REMARKS
DES MOINES     MOSUNNY   44  12  27 S16G24    30.24S
IOWA CITY      SUNNY     38  15  39 SE12G17   30.32F WCI  30
FORT DODGE     MOSUNNY   43  18  36 S13       30.21F
$$

...NORTHERN ILLINOIS...


CITY           SKY/WX    TMP DP  RH WIND       PRES   REMARKS
CHICAGO-OHARE  SUNNY     32  10  40 NE8       30.34S WCI  25
CHICAGO-MIDWAY MOSUNNY   34  10  37 NE7       30.35S WCI  28
MOLINE         SUNNY     36  10  34 VRB6      30.33F WCI  31
ROCKFORD       MOSUNNY   35  10  35 E7        30.36S WCI  29
PEORIA         SUNNY     36  11  35 MISG      30.35S
$$

NOTE: "FAIR" INDICATES FEW OR NO CLOUDS BELOW 12,000 FEET WITH NO
SIGNIFICANT WEATHER AND/OR OBSTRUCTIONS TO VISIBILITY. WIND
SPEEDS ARE IN MILES-PER-HOUR.



USA.gov is the U.S. government's official web portal to all federal, state and local government web resources and services.